Location: Newark
(52.4787°S, 179.0532°W)
Time: 22:16:05
(UTC+00:00)

Transit 2A Rocket - Pass Details

Date: 28 November 2019
Orbit: 594 x 909 km, 66.7° (Epoch: 07 December)

Event Time Altitude Azimuth Distance (km) Brightness Sun altitude
Rises 05:48:01 0° 230° (SW) 3,560 9.7 16.1°
Reaches altitude 10° 05:52:18 10° 258° (WSW) 2,576 10.7 15.5°
Maximum altitude 05:54:30 12° 280° (W) 2,391 9.0 15.2°
Drops below altitude 10° 05:56:41 10° 302° (WNW) 2,512 8.4 14.8°
Sets 06:00:44 0° 331° (NNW) 3,370 8.5 14.2°
